Time,TemperatureF,DewpointF,PressureIn,WindDirection,WindDirectionDegrees,WindSpeedMPH,WindSpeedGustMPH,Humidity,HourlyPrecipIn,Conditions,Clouds,dailyrainin,SoftwareType,DateUTC
2013-03-09 00:01:00,26.0,23.0,-100.00,ENE,65,2.0,2.0,90,0.00,,,-99.99,,2013-03-09 07:01:00,
2013-03-09 00:11:00,26.0,23.0,-100.00,ENE,65,2.0,2.0,90,0.00,,,-99.99,,2013-03-09 07:11:00,
2013-03-09 00:21:00,26.0,23.0,-100.00,ESE,105,0.0,1.0,90,0.00,,,-99.99,,2013-03-09 07:21:00,
2013-03-09 00:32:00,26.0,23.0,-100.00,NE,50,1.0,1.0,90,0.00,,,-99.99,,2013-03-09 07:32:00,
2013-03-09 00:42:00,24.0,22.0,-100.00,NNW,330,0.0,1.0,90,0.00,,,-99.99,,2013-03-09 07:42:00,
2013-03-09 00:52:00,24.0,22.0,-100.00,WSW,250,1.0,2.0,90,0.00,,,-99.99,,2013-03-09 07:52:00,
2013-03-09 01:01:00,25.0,22.0,-100.00,West,265,2.0,2.0,90,0.00,,,-99.99,,2013-03-09 08:01:00,
2013-03-09 01:11:00,24.0,22.0,-100.00,West,280,2.0,2.0,90,0.00,,,-99.99,,2013-03-09 08:11:00,
2013-03-09 01:22:00,25.0,22.0,-100.00,WSW,255,2.0,4.0,90,0.00,,,-99.99,,2013-03-09 08:22:00,
2013-03-09 01:32:00,25.0,22.0,-100.00,West,260,4.0,4.0,90,0.00,,,-99.99,,2013-03-09 08:32:00,
2013-03-09 01:41:00,25.0,22.0,-100.00,WNW,285,2.0,4.0,90,0.00,,,-99.99,,2013-03-09 08:41:00,
2013-03-09 01:52:00,24.0,22.0,-100.00,WNW,290,2.0,2.0,90,0.00,,,-99.99,,2013-03-09 08:52:00,
2013-03-09 02:01:00,24.0,22.0,-100.00,West,275,2.0,2.0,90,0.00,,,-99.99,,2013-03-09 09:01:00,
2013-03-09 02:12:00,24.0,22.0,-100.00,WNW,290,1.0,3.0,90,0.00,,,-99.99,,2013-03-09 09:12:00,
2013-03-09 02:21:00,24.0,22.0,-100.00,WSW,250,2.0,32.0,90,0.00,,,-99.99,,2013-03-09 09:21:00,
2013-03-09 02:32:00,25.0,23.0,-100.00,SW,235,3.0,3.0,90,0.00,,,-99.99,,2013-03-09 09:32:00,
2013-03-09 02:42:00,26.0,23.0,-100.00,South,175,2.0,4.0,90,0.00,,,-99.99,,2013-03-09 09:42:00,
2013-03-09 02:52:00,26.0,23.0,-100.00,SSE,165,4.0,4.0,90,0.00,,,-99.99,,2013-03-09 09:52:00,
2013-03-09 03:01:00,26.0,23.0,-100.00,South,175,2.0,4.0,90,0.00,,,-99.99,,2013-03-09 10:01:00,
2013-03-09 03:11:00,25.0,23.0,-100.00,SSE,155,2.0,3.0,90,0.00,,,-99.99,,2013-03-09 10:11:00,
2013-03-09 03:21:00,25.0,23.0,-100.00,ESE,105,1.0,2.0,90,0.00,,,-99.99,,2013-03-09 10:21:00,
2013-03-09 03:31:00,25.0,23.0,-100.00,ENE,65,2.0,3.0,90,0.00,,,-99.99,,2013-03-09 10:31:00,
2013-03-09 03:42:00,25.0,23.0,-100.00,ENE,75,4.0,39.0,90,0.20,,,-99.99,,2013-03-09 10:42:00,
2013-03-09 03:52:00,24.0,22.0,-100.00,ESE,115,6.0,7.0,90,0.00,,,-99.99,,2013-03-09 10:52:00,
2013-03-09 04:01:00,24.0,21.0,-100.00,ESE,120,4.0,7.0,90,0.00,,,-99.99,,2013-03-09 11:01:00,
2013-03-09 04:11:00,23.0,21.0,-100.00,SE,145,4.0,6.0,90,0.00,,,-99.99,,2013-03-09 11:11:00,
2013-03-09 04:21:00,22.0,20.0,-100.00,South,180,3.0,4.0,90,0.00,,,-99.99,,2013-03-09 11:21:00,
2013-03-09 04:32:00,22.0,20.0,-100.00,SSW,210,1.0,2.0,90,0.00,,,-99.99,,2013-03-09 11:32:00,
2013-03-09 04:42:00,22.0,20.0,-100.00,South,175,2.0,3.0,90,0.00,,,-99.99,,2013-03-09 11:42:00,
2013-03-09 04:52:00,20.0,18.0,-100.00,NW,315,2.0,3.0,89,0.00,,,-99.99,,2013-03-09 11:52:00,
2013-03-09 05:01:00,19.0,17.0,-100.00,SW,235,2.0,4.0,89,0.00,,,-99.99,,2013-03-09 12:01:00,
2013-03-09 05:11:00,18.0,15.0,-100.00,West,275,22.0,109.0,88,0.00,,,-99.99,,2013-03-09 12:11:00,
2013-03-09 05:21:00,15.0,12.0,-100.00,South,175,90.0,109.0,88,0.00,,,-99.99,,2013-03-09 12:21:00,
2013-03-09 05:32:00,14.0,11.0,-100.00,South,175,76.0,109.0,87,0.00,,,-99.99,,2013-03-09 12:32:00,
2013-03-09 05:42:00,17.0,14.0,-100.00,North,10,7.0,109.0,87,0.00,,,-99.99,,2013-03-09 12:42:00,
2013-03-09 05:52:00,21.0,18.0,-100.00,North,5,14.0,18.0,87,0.00,,,-99.99,,2013-03-09 12:52:00,
2013-03-09 06:02:00,22.0,18.0,-100.00,North,10,15.0,23.0,83,0.00,,,-99.99,,2013-03-09 13:02:00,
2013-03-09 06:11:00,23.0,17.0,-100.00,North,5,15.0,21.0,76,0.00,,,-99.99,,2013-03-09 13:11:00,
2013-03-09 06:21:00,24.0,15.0,-100.00,North,350,18.0,21.0,69,0.00,,,-99.99,,2013-03-09 13:21:00,
2013-03-09 06:32:00,24.0,15.0,-100.00,NNW,340,7.0,16.0,68,0.00,,,-99.99,,2013-03-09 13:32:00,
2013-03-09 06:42:00,24.0,14.0,-100.00,SSE,155,4.0,7.0,67,0.00,,,-99.99,,2013-03-09 13:42:00,
2013-03-09 06:52:00,24.0,14.0,-100.00,SSW,205,6.0,9.0,66,0.00,,,-99.99,,2013-03-09 13:52:00,
2013-03-09 07:01:00,22.0,15.0,-100.00,SSW,200,6.0,13.0,73,0.00,,,-99.99,,2013-03-09 14:01:00,
2013-03-09 07:11:00,22.0,16.0,-100.00,SE,145,6.0,9.0,77,0.00,,,-99.99,,2013-03-09 14:11:00,
2013-03-09 07:21:00,22.0,16.0,-100.00,SE,140,6.0,45.0,77,0.00,,,-99.99,,2013-03-09 14:21:00,
2013-03-09 07:32:00,23.0,17.0,-100.00,ESE,110,2.0,6.0,78,0.10,,,-99.99,,2013-03-09 14:32:00,
2013-03-09 07:42:00,23.0,18.0,-100.00,SE,130,2.0,2.0,79,0.00,,,-99.99,,2013-03-09 14:42:00,
2013-03-09 07:52:00,23.0,18.0,-100.00,SE,145,2.0,3.0,79,0.00,,,-99.99,,2013-03-09 14:52:00,
2013-03-09 08:02:00,24.0,18.0,-100.00,East,90,1.0,2.0,79,0.00,,,-99.99,,2013-03-09 15:02:00,
2013-03-09 08:11:00,24.0,19.0,-100.00,NE,40,2.0,2.0,79,0.00,,,-99.99,,2013-03-09 15:11:00,
2013-03-09 08:22:00,25.0,20.0,-100.00,ENE,60,2.0,2.0,79,0.00,,,-99.99,,2013-03-09 15:22:00,
2013-03-09 08:32:00,25.0,19.0,-100.00,ENE,60,2.0,3.0,79,0.00,,,-99.99,,2013-03-09 15:32:00,
2013-03-09 08:42:00,26.0,20.0,-100.00,ENE,70,3.0,37.0,77,0.00,,,-99.99,,2013-03-09 15:42:00,
2013-03-09 08:52:00,26.0,20.0,-100.00,NNE,25,4.0,43.0,76,0.00,,,-99.99,,2013-03-09 15:52:00,
2013-03-09 09:01:00,28.0,20.0,-100.00,NNW,345,4.0,6.0,72,0.00,,,-99.99,,2013-03-09 16:01:00,
2013-03-09 09:11:00,30.0,20.0,-100.00,NW,325,3.0,6.0,67,0.00,,,-99.99,,2013-03-09 16:11:00,
2013-03-09 09:21:00,32.0,21.0,-100.00,NNW,335,1.0,40.0,62,0.00,,,-99.99,,2013-03-09 16:21:00,
2013-03-09 09:32:00,31.0,18.0,-100.00,East,95,2.0,3.0,58,0.00,,,-99.99,,2013-03-09 16:32:00,
2013-03-09 09:42:00,28.0,18.0,-100.00,ESE,110,6.0,7.0,66,0.00,,,-99.99,,2013-03-09 16:42:00,
2013-03-09 09:51:00,25.0,18.0,-100.00,East,100,7.0,40.0,74,0.00,,,-99.99,,2013-03-09 16:51:00,
2013-03-09 10:01:00,25.0,19.0,-100.00,East,100,6.0,7.0,77,0.00,,,-99.99,,2013-03-09 17:01:00,
2013-03-09 10:11:00,27.0,21.0,-100.00,ESE,110,2.0,5.0,77,0.00,,,-99.99,,2013-03-09 17:11:00,
2013-03-09 10:22:00,28.0,19.0,-100.00,NNE,30,10.0,11.0,70,0.10,,,-99.99,,2013-03-09 17:22:00,
2013-03-09 10:32:00,27.0,17.0,-100.00,NE,40,8.0,12.0,67,0.00,,,-99.99,,2013-03-09 17:32:00,
2013-03-09 10:42:00,27.0,17.0,-100.00,NE,35,11.0,13.0,65,0.00,,,-99.99,,2013-03-09 17:42:00,
2013-03-09 10:52:00,28.0,16.0,-100.00,NNE,15,11.0,16.0,58,0.00,,,-99.99,,2013-03-09 17:52:00,
2013-03-09 11:01:00,29.0,15.0,-100.00,NNE,15,13.0,31.0,55,0.00,,,-99.99,,2013-03-09 18:01:00,
2013-03-09 11:11:00,29.0,14.0,-100.00,NNE,25,14.0,16.0,52,0.00,,,-99.99,,2013-03-09 18:11:00,
2013-03-09 11:21:00,28.0,14.0,-100.00,NE,40,12.0,16.0,55,0.00,,,-99.99,,2013-03-09 18:21:00,
2013-03-09 11:32:00,28.0,16.0,-100.00,East,80,4.0,12.0,60,0.00,,,-99.99,,2013-03-09 18:32:00,
2013-03-09 11:42:00,28.0,16.0,-100.00,NE,40,15.0,18.0,60,0.00,,,-99.99,,2013-03-09 18:42:00,
2013-03-09 11:52:00,27.0,15.0,-100.00,NE,40,13.0,40.0,62,0.00,,,-99.99,,2013-03-09 18:52:00,
2013-03-09 12:01:00,26.0,14.0,-100.00,NE,40,16.0,22.0,60,0.00,,,-99.99,,2013-03-09 19:01:00,
2013-03-09 12:11:00,26.0,14.0,-100.00,NE,40,16.0,21.0,60,0.00,,,-99.99,,2013-03-09 19:11:00,
2013-03-09 12:22:00,27.0,13.0,-100.00,NNE,20,11.0,16.0,54,0.00,,,-99.99,,2013-03-09 19:22:00,
2013-03-09 12:32:00,26.0,13.0,-100.00,NE,40,17.0,22.0,55,0.00,,,-99.99,,2013-03-09 19:32:00,
2013-03-09 12:42:00,26.0,12.0,-100.00,NE,40,20.0,25.0,56,0.00,,,-99.99,,2013-03-09 19:42:00,
2013-03-09 12:51:00,26.0,12.0,-100.00,NNE,30,20.0,26.0,54,0.00,,,-99.99,,2013-03-09 19:51:00,
2013-03-09 13:01:00,27.0,11.0,-100.00,NE,50,19.0,24.0,51,0.00,,,-99.99,,2013-03-09 20:01:00,
2013-03-09 13:11:00,26.0,12.0,-100.00,NE,55,18.0,25.0,54,0.00,,,-99.99,,2013-03-09 20:11:00,
2013-03-09 13:21:00,27.0,12.0,-100.00,NE,40,19.0,27.0,52,0.00,,,-99.99,,2013-03-09 20:21:00,
2013-03-09 13:32:00,26.0,11.0,-100.00,NE,45,22.0,27.0,52,0.00,,,-99.99,,2013-03-09 20:32:00,
2013-03-09 13:42:00,26.0,12.0,-100.00,NE,45,21.0,25.0,54,0.00,,,-99.99,,2013-03-09 20:42:00,
2013-03-09 13:52:00,27.0,13.0,-100.00,NE,40,23.0,27.0,54,0.00,,,-99.99,,2013-03-09 20:52:00,
2013-03-09 14:02:00,27.0,11.0,-100.00,NE,40,21.0,29.0,51,0.00,,,-99.99,,2013-03-09 21:02:00,
2013-03-09 14:12:00,26.0,11.0,-100.00,NE,55,19.0,29.0,52,0.00,,,-99.99,,2013-03-09 21:12:00,
2013-03-09 14:22:00,27.0,12.0,-100.00,NE,50,21.0,26.0,54,0.00,,,-99.99,,2013-03-09 21:22:00,
2013-03-09 14:32:00,27.0,12.0,-100.00,NE,50,21.0,28.0,52,0.00,,,-99.99,,2013-03-09 21:32:00,
2013-03-09 14:42:00,27.0,11.0,-100.00,NE,40,23.0,29.0,51,0.00,,,-99.99,,2013-03-09 21:42:00,
2013-03-09 14:52:00,26.0,11.0,-100.00,NE,50,24.0,30.0,54,0.00,,,-99.99,,2013-03-09 21:52:00,
2013-03-09 15:01:00,25.0,12.0,-100.00,NE,50,19.0,29.0,56,0.00,,,-99.99,,2013-03-09 22:01:00,
2013-03-09 15:11:00,25.0,12.0,-100.00,NE,35,19.0,29.0,56,0.00,,,-99.99,,2013-03-09 22:11:00,
2013-03-09 15:21:00,25.0,11.0,-100.00,NE,35,26.0,51.0,56,0.00,,,-99.99,,2013-03-09 22:21:00,
2013-03-09 15:32:00,25.0,12.0,-100.00,NE,40,19.0,28.0,56,0.00,,,-99.99,,2013-03-09 22:32:00,
2013-03-09 15:42:00,26.0,11.0,-100.00,North,10,18.0,24.0,52,0.00,,,-99.99,,2013-03-09 22:42:00,
2013-03-09 15:51:00,26.0,11.0,-100.00,North,10,18.0,23.0,52,0.00,,,-99.99,,2013-03-09 22:51:00,
2013-03-09 16:01:00,24.0,12.0,-100.00,North,5,18.0,22.0,58,0.00,,,-99.99,,2013-03-09 23:01:00,
2013-03-09 16:11:00,23.0,12.0,-100.00,NNW,345,19.0,31.0,62,0.00,,,-99.99,,2013-03-09 23:11:00,
2013-03-09 16:21:00,24.0,12.0,-100.00,NNW,335,19.0,24.0,60,0.00,,,-99.99,,2013-03-09 23:21:00,
2013-03-09 16:32:00,24.0,11.0,-100.00,NNW,340,21.0,26.0,58,0.00,,,-99.99,,2013-03-09 23:32:00,
2013-03-09 16:42:00,24.0,12.0,-100.00,North,5,19.0,25.0,58,0.00,,,-99.99,,2013-03-09 23:42:00,
2013-03-09 16:52:00,25.0,11.0,-100.00,North,350,19.0,24.0,56,0.00,,,-99.99,,2013-03-09 23:52:00,
2013-03-09 17:01:00,23.0,10.0,-100.00,North,10,16.0,22.0,56,0.00,,,-99.99,,2013-03-10 00:01:00,
2013-03-09 17:11:00,23.0,10.0,-100.00,North,10,17.0,24.0,56,0.00,,,-99.99,,2013-03-10 00:11:00,
2013-03-09 17:22:00,22.0,9.0,-100.00,North,5,17.0,21.0,57,0.00,,,-99.99,,2013-03-10 00:22:00,
2013-03-09 17:32:00,21.0,9.0,-100.00,North,350,20.0,24.0,58,0.00,,,-99.99,,2013-03-10 00:32:00,
2013-03-09 17:42:00,20.0,8.0,-100.00,North,350,19.0,24.0,59,0.00,,,-99.99,,2013-03-10 00:42:00,
2013-03-09 17:52:00,20.0,8.0,-100.00,North,5,20.0,24.0,58,0.00,,,-99.99,,2013-03-10 00:52:00,
2013-03-09 18:01:00,20.0,8.0,-100.00,NNW,340,21.0,27.0,59,0.00,,,-99.99,,2013-03-10 01:01:00,
2013-03-09 18:11:00,20.0,8.0,-100.00,NNW,345,22.0,28.0,60,0.00,,,-99.99,,2013-03-10 01:11:00,
2013-03-09 18:21:00,20.0,8.0,-100.00,NNW,345,23.0,29.0,60,0.00,,,-99.99,,2013-03-10 01:21:00,
2013-03-09 18:31:00,19.0,8.0,-100.00,North,0,20.0,25.0,60,0.00,,,-99.99,,2013-03-10 01:31:00,
2013-03-09 18:41:00,19.0,8.0,-100.00,North,5,21.0,26.0,60,0.00,,,-99.99,,2013-03-10 01:41:00,
2013-03-09 18:52:00,19.0,8.0,-100.00,North,5,21.0,28.0,60,0.00,,,-99.99,,2013-03-10 01:52:00,
2013-03-09 19:01:00,19.0,8.0,-100.00,North,350,19.0,25.0,60,0.00,,,-99.99,,2013-03-10 02:01:00,
2013-03-09 19:11:00,19.0,7.0,-100.00,North,350,22.0,26.0,59,0.00,,,-99.99,,2013-03-10 02:11:00,
2013-03-09 19:22:00,18.0,6.0,-100.00,North,350,23.0,29.0,58,0.00,,,-99.99,,2013-03-10 02:22:00,
2013-03-09 19:32:00,18.0,6.0,-100.00,North,350,23.0,31.0,58,0.00,,,-99.99,,2013-03-10 02:32:00,
2013-03-09 19:42:00,18.0,5.0,-100.00,NNW,345,23.0,29.0,57,0.00,,,-99.99,,2013-03-10 02:42:00,
2013-03-09 19:52:00,17.0,5.0,-100.00,NNW,345,25.0,31.0,58,0.00,,,-99.99,,2013-03-10 02:52:00,
2013-03-09 20:01:00,17.0,6.0,-100.00,NNW,345,27.0,37.0,59,0.00,,,-99.99,,2013-03-10 03:01:00,
2013-03-09 20:11:00,17.0,6.0,-100.00,NNW,345,24.0,37.0,59,0.00,,,-99.99,,2013-03-10 03:11:00,
2013-03-09 20:22:00,17.0,5.0,-100.00,NNW,345,24.0,35.0,57,0.00,,,-99.99,,2013-03-10 03:22:00,
2013-03-09 20:32:00,17.0,4.0,-100.00,NNW,345,25.0,31.0,56,0.00,,,-99.99,,2013-03-10 03:32:00,
2013-03-09 20:42:00,16.0,3.0,-100.00,NNW,345,17.0,29.0,55,0.00,,,-99.99,,2013-03-10 03:42:00,
2013-03-09 20:52:00,16.0,2.0,-100.00,NNW,345,20.0,26.0,53,0.00,,,-99.99,,2013-03-10 03:52:00,
2013-03-09 21:01:00,15.0,2.0,-100.00,NNW,345,22.0,27.0,56,0.00,,,-99.99,,2013-03-10 04:01:00,
2013-03-09 21:11:00,15.0,2.0,-100.00,NNW,340,19.0,24.0,56,0.00,,,-99.99,,2013-03-10 04:11:00,
2013-03-09 21:21:00,14.0,2.0,-100.00,NNW,345,15.0,23.0,56,0.00,,,-99.99,,2013-03-10 04:21:00,
2013-03-09 21:32:00,14.0,2.0,-100.00,NNW,340,18.0,22.0,57,0.00,,,-99.99,,2013-03-10 04:32:00,
2013-03-09 21:42:00,14.0,2.0,-100.00,NNW,345,19.0,23.0,57,0.00,,,-99.99,,2013-03-10 04:42:00,
2013-03-09 21:52:00,14.0,1.0,-100.00,NNW,345,19.0,23.0,57,0.00,,,-99.99,,2013-03-10 04:52:00,
2013-03-09 22:01:00,14.0,1.0,-100.00,NNW,340,18.0,25.0,56,0.00,,,-99.99,,2013-03-10 05:01:00,
2013-03-09 22:11:00,14.0,0.0,-100.00,NNW,340,19.0,28.0,53,0.00,,,-99.99,,2013-03-10 05:11:00,
2013-03-09 22:22:00,14.0,0.0,-100.00,NW,325,20.0,32.0,52,0.00,,,-99.99,,2013-03-10 05:22:00,
2013-03-09 22:31:00,13.0,-1.0,-100.00,NNW,340,16.0,25.0,52,0.00,,,-99.99,,2013-03-10 05:31:00,
2013-03-09 22:42:00,13.0,-2.0,-100.00,NNW,340,14.0,20.0,50,0.00,,,-99.99,,2013-03-10 05:42:00,
2013-03-09 22:52:00,12.0,-2.0,-100.00,NNW,340,18.0,23.0,52,0.00,,,-99.99,,2013-03-10 05:52:00,
2013-03-09 23:01:00,11.0,-2.0,-100.00,NNW,345,17.0,27.0,52,0.00,,,-99.99,,2013-03-10 06:01:00,
2013-03-09 23:11:00,11.0,-2.0,-100.00,North,5,13.0,21.0,54,0.00,,,-99.99,,2013-03-10 06:11:00,
2013-03-09 23:22:00,11.0,-2.0,-100.00,NNW,340,15.0,22.0,54,0.00,,,-99.99,,2013-03-10 06:22:00,
2013-03-09 23:32:00,10.0,-3.0,-100.00,NNW,335,14.0,19.0,54,0.00,,,-99.99,,2013-03-10 06:32:00,
2013-03-09 23:42:00,11.0,-2.0,-100.00,NNW,340,17.0,26.0,54,0.00,,,-99.99,,2013-03-10 06:42:00,
2013-03-09 23:51:00,11.0,-2.0,-100.00,NNW,345,16.0,24.0,54,0.00,,,-99.99,,2013-03-10 06:51:00,